Torna al catalogo

STARLINK-4343

AttivoComunicazioniSSO
NORAD 53050·PAYLOAD·🇺🇸 United States

Lanciato Jul 11, 2022 da Vandenberg Space Force Base

Loading…

Prossimi Passaggi (prossime 24 ore)

TLE

AggiornatoSource: CelesTrak SupGP

Epoca: Sep 14, 2026, 20:37 UTC

1 53050C 22077H   26257.85951389  .00069561  00000+0  21594-2 0  2577
2 53050  97.2857  73.7009 0001381  86.1946   6.5802 15.33403413    15

Traccia STARLINK-4343 in tempo reale con AllMySat

Download on the App Store